Cloud_Cover
19 96 69 90 93 87 100 100 93 100 100 100 99 94 100 61 99 100 28 7 18 5 5 5 5 0 0 0 0 0 0 1 0 0 0 2 5 5 5 7 42 16 80 100 91
100 94 87 100 75 100 100 100 96 100 27 100 13 67 80 97 100 100 100 100 30 5 5 5 5 4 2 4 0 0 0 4 0 0 5 5 5 3 3 0 0 1 0 6 12
100 100 100 100 96 100 100 100 100 47 30 16 78 98 37 70 84 48 14 5 5 5 0 5 70 97 63 9 3 0 0 0 0 5 0 0 1 0 0 0 0 0 4 0 0
68 100 100 100 100 100 100 100 100 100 100 20 95 39 49 5 76 10 38 19 5 5 5 5 84 100 100 9 0 0 2 2 0 3 2 1 0 0 0 2 0 0 0 94 100
100 100 100 100 100 100 100 100 44 31 54 16 2 30 5 47 17 21 5 5 32 59 51 48 100 100 100 43 0 0 0 3 5 0 2 5 0 0 0 0 2 1 0 0 2
100 100 100 67 96 100 100 65 0 0 0 0 1 0 5 3 1 12 5 5 8 97 97 100 100 100 100 86 3 0 0 1 0 4 5 3 5 4 0 0 0 0 0 0 0
88 100 100 86 99 100 100 5 0 0 0 0 0 0 0 0 0 0 14 100 97 72 81 100 100 100 100 100 37 1 0 0 0 0 0 0 3 5 0 0 0 0 0 0 0
99 100 100 100 100 100 26 0 0 0 0 0 0 0 0 0 0 0 0 0 0 0 56 73 50 65 92 95 82 13 1 0 0 0 0 3 1 5 0 0 5 4 5 5 5
100 100 88 97 100 55 5 1 0 0 0 0 0 0 0 3 0 0 0 0 0 0 0 0 1 4 4 5 5 0 0 0 0 0 0 4 38 37 10 15 5 30 17 7 5
100 100 100 60 100 6 5 5 3 0 0 0 0 4 0 4 5 5 0 0 0 0 0 0 0 0 0 0 0 0 0 0 20 0 0 5 6 65 2 4 5 33 45 86 5
50 100 100 56 88 5 5 0 0 0 0 4 0 5 5 5 4 5 0 0 0 0 0 0 0 0 0 0 0 0 0 4 97 69 10 2 5 5 5 5 5 5 5 5 4
100 100 100 65 5 5 3 1 0 1 5 5 5 5 5 8 5 5 5 2 1 0 0 0 0 0 0 1 1 5 0 54 100 56 13 84 21 6 5 5 65 45 43 71 18
100 46 58 29 5 5 5 3 5 5 5 5 5 5 5 2 5 3 5 3 0 0 0 0 0 0 0 5 34 100 96 39 14 96 32 3 56 100 21 5 10 92 40 5 0
56 1 4 5 5 5 5 5 5 2 1 0 0 0 0 4 0 0 0 0 0 0 0 0 0 3 4 2 3 94 100 100 96 63 5 5 8 66 50 24 2 2 5 5 5
15 0 0 0 1 1 0 0 0 5 5 5 5 5 5 0 0 0 0 0 0 0 0 0 1 13 62 58 13 86 16 5 5 2 5 33 70 60 99 94 99 37 5 5 29
11 2 0 4 0 0 0 0 0 0 0 2 2 0 0 0 0 0 0 0 0 0 0 0 0 4 12 100 97 100 100 100 56 54 18 35 48 99 96 63 40 15 5 2 5
6 5 8 5 0 0 0 0 2 4 4 1 0 0 0 0 0 0 0 0 0 0 0 0 0 0 2 52 84 22 42 33 4 5 5 15 39 7 32 62 42 30 16 6 5
1 5 31 34 5 5 4 1 0 0 0 0 0 0 0 0 0 0 0 0 0 0 0 0 0 0 0 0 0 0 0 0 0 0 0 0 0 0 52 94 100 99 99 81 32
0 7 0 2 4 5 5 5 3 0 0 0 0 0 0 0 0 0 0 0 0 0 0 0 0 0 0 0 0 0 0 0 0 0 0 0 3 4 6 4 0 0 0 0 0
0 0 0 0 0 0 0 0 0 0 0 0 0 0 0 0 0 0 0 0 0 0 0 0 0 0 0 0 0 0 0 5 3 4 2 0 0 0 5 2 0 0 0 0 0
0 0 0 0 0 0 0 1 0 0 0 0 1 5 2 3 5 5 2 0 0 0 0 0 0 0 0 0 0 0 0 0 4 70 96 47 8 5 5 3 2 0 0 4 5
0 0 0 0 0 0 0 0 5 5 2 4 5 32 29 64 5 41 32 5 5 5 5 0 0 2 0 0 0 0 0 0 3 5 5 6 4 5 48 96 82 99 0 9 5
0 0 0 0 0 0 0 0 6 100 100 95 84 78 17 90 85 99 100 100 99 57 24 47 5 4 5 3 0 0 0 0 0 3 4 5 2 5 0 0 0 0 1 5 5
0 0 1 2 2 7 28 3 27 100 100 100 100 100 100 100 100 100 100 100 100 100 99 42 8 5 5 6 5 0 0 4 5 5 5 1 5 5 4 0 0 0 5 5 5
0 0 0 0 2 21 94 100 100 100 100 100 100 100 100 100 100 100 100 100 100 100 100 100 100 100 95 65 17 8 33 29 6 15 34 6 5 4 0 0 0 2 5 5 5
0 0 0 0 4 43 98 100 100 100 100 100 100 100 100 100 100 100 100 100 100 100 100 100 100 100 100 100 100 100 100 100 100 100 72 6 5 5 5 4 4 5 5 5 5
1 5 5 5 6 11 71 100 100 100 100 100 100 100 100 100 100 100 100 100 100 96 99 100 100 100 100 100 100 100 100 89 49 51 16 27 14 5 5 36 69 90 79 18 5